Waarnemingen

Advertentie
Mijn weer
Exeter Airport No. 2, Groot Brittannië (3844): temperatuur & dauwpunt: 09.08.2018 00:00:00 - 15.08.2018 00:00:00 (BST)Exeter Airport No. 2, Groot Brittannië (3844): windsnelheid & windstoten: 09.08.2018 00:00:00 - 15.08.2018 00:00:00 (BST)Exeter Airport No. 2, Groot Brittannië (3844): windrichting: 09.08.2018 00:00:00 - 15.08.2018 00:00:00 (BST)Exeter Airport No. 2, Groot Brittannië (3844): luchtdruk: 09.08.2018 00:00:00 - 15.08.2018 00:00:00 (BST)Exeter Airport No. 2, Groot Brittannië (3844): zicht: 09.08.2018 00:00:00 - 15.08.2018 00:00:00 (BST)Exeter Airport No. 2, Groot Brittannië (3844): Zonneschijnduur: 09.08.2018 00:00:00 - 15.08.2018 00:00:00 (BST)Exeter Airport No. 2, Groot Brittannië (3844): neerslag: 09.08.2018 00:00:00 - 15.08.2018 00:00:00 (BST)
Datum & Tijd tt [°C] td [°C] ff [km/u] ff [kn] fx [km/u] fx [kn] dd ppp [hPa] vv [km] sd [min] rr [mm]
15.08.2018 00:00:00 - - - - - - - - - - -
14.08.2018 23:00:00 17,8 14,2 15 8 - - W 1019,9 30 0 0,0
14.08.2018 22:00:00 17,7 14,3 16 9 - - WNW 1019,9 28 0 0,0
14.08.2018 21:00:00 18,0 14,7 21 11 - - W 1019,8 28 0 0,0
14.08.2018 20:00:00 18,4 14,0 16 9 - - WNW 1019,4 30 0 0,0
14.08.2018 19:00:00 19,1 14,3 16 9 - - W 1019,1 35 0 0,0
14.08.2018 18:00:00 20,0 13,6 22 12 - - W 1018,9 40 6 0,0
14.08.2018 17:00:00 20,9 14,7 21 11 - - WNW 1018,9 35 6 0,0
14.08.2018 16:00:00 22,4 15,5 15 8 - - WNW 1018,6 40 18 0,0
14.08.2018 15:00:00 20,9 15,2 24 13 - - W 1018,8 40 18 0,0
14.08.2018 14:00:00 21,7 16,2 15 8 - - WNW 1018,3 50 36 0,0
14.08.2018 13:00:00 21,6 15,7 18 10 - - W 1018,2 50 18 0,0
14.08.2018 12:00:00 21,2 15,2 16 9 - - W 1018,1 45 18 0,0
14.08.2018 11:00:00 21,1 15,5 16 9 - - W 1017,8 50 30 0,0
14.08.2018 10:00:00 19,2 15,8 15 8 - - W 1017,7 50 0 0,0
14.08.2018 09:00:00 19,0 15,8 5 3 - - W 1017,2 35 36 0,0
14.08.2018 08:00:00 17,5 15,5 8 4 - - Z 1017,0 35 18 0,0
14.08.2018 07:00:00 15,6 15,4 4 2 - - ZZW 1016,8 28 0 0,0
14.08.2018 06:00:00 15,2 14,9 2 1 - - OZO 1016,1 23 0 0,0
14.08.2018 05:00:00 14,7 14,6 2 1 - - ZZO 1015,9 26 0 0,0
14.08.2018 04:00:00 13,4 13,3 2 1 - - ZZW 1015,7 21 0 0,0
14.08.2018 03:00:00 12,4 12,1 2 1 - - NNO 1015,5 7 0 0,0
14.08.2018 02:00:00 12,9 12,6 4 2 - - OZO 1015,4 14 0 0,0
14.08.2018 01:00:00 14,6 14,5 8 4 - - WNW 1015,1 24 - 0,0
14.08.2018 00:00:00 13,0 12,3 2 1 - - Z 1014,7 17 0 0,0
13.08.2018 23:00:00 13,5 12,7 5 3 - - O 1014,3 11 0 0,0
13.08.2018 22:00:00 15,6 13,4 4 2 - - N 1014,0 23 0 0,0
13.08.2018 21:00:00 17,0 14,1 11 6 - - WNW 1013,2 27 0 0,0
13.08.2018 20:00:00 18,9 13,6 13 7 - - NW 1012,4 35 54 0,0
13.08.2018 19:00:00 20,7 14,0 16 9 - - NW 1011,3 45 60 0,0
13.08.2018 18:00:00 21,4 13,6 22 12 - - NW 1010,9 50 54 0,0
13.08.2018 17:00:00 20,1 14,9 18 10 - - NW 1010,7 50 24 0,0
13.08.2018 16:00:00 21,3 15,1 22 12 - - NW 1010,1 50 24 0,0
13.08.2018 15:00:00 21,1 14,7 21 11 - - NW 1009,9 45 12 0,0
13.08.2018 14:00:00 21,2 15,7 18 10 - - WNW 1009,5 50 0 0,0
13.08.2018 13:00:00 19,8 16,0 18 10 - - W 1009,4 30 0 0,0
13.08.2018 12:00:00 20,3 15,0 15 8 - - W 1009,0 45 6 0,0
13.08.2018 11:00:00 20,1 15,1 15 8 - - W 1008,7 45 30 0,0
13.08.2018 10:00:00 19,0 15,3 13 7 - - WNW 1008,4 45 24 0,0
13.08.2018 09:00:00 17,3 15,4 9 5 - - W 1008,0 40 24 0,0
13.08.2018 08:00:00 16,2 15,0 9 5 - - WNW 1007,9 35 42 0,0
13.08.2018 07:00:00 15,3 14,7 9 5 - - W 1007,2 27 18 0,0
13.08.2018 06:00:00 15,2 14,7 8 4 - - W 1006,7 26 0 0,0
13.08.2018 05:00:00 14,9 14,4 5 3 - - NW 1006,5 21 0 0,0
13.08.2018 04:00:00 14,9 14,5 5 3 - - W 1006,4 24 0 0,0
13.08.2018 03:00:00 15,1 14,8 4 2 - - WZW 1006,2 14 0 0,0
13.08.2018 02:00:00 15,4 14,9 0 0 - - N 1006,3 25 0 0,0
13.08.2018 01:00:00 15,3 14,9 2 1 - - O 1006,5 29 - 0,0
13.08.2018 00:00:00 15,4 14,9 2 1 - - NNW 1006,6 30 0 0,0
12.08.2018 23:00:00 15,3 14,5 2 1 - - W 1006,6 30 0 0,8
12.08.2018 22:00:00 15,8 14,6 5 3 - - W 1006,5 11 0 0,2
12.08.2018 21:00:00 17,1 14,9 11 6 - - WZW 1006,4 35 0 0,0
12.08.2018 20:00:00 18,5 14,5 15 8 - - ZW 1006,2 40 0 0,0
12.08.2018 19:00:00 19,3 14,9 15 8 - - ZZW 1006,1 30 0 0,0
12.08.2018 18:00:00 19,6 16,0 16 9 - - Z 1006,3 23 18 0,0
12.08.2018 17:00:00 20,9 16,4 16 9 - - Z 1006,3 18 36 0,0
12.08.2018 16:00:00 20,2 17,1 21 11 - - ZZO 1006,8 21 30 0,0
12.08.2018 15:00:00 19,6 17,0 13 7 - - Z 1007,3 26 0 0,0
12.08.2018 14:00:00 19,0 17,2 16 9 - - Z 1007,7 22 0 0,0
12.08.2018 13:00:00 18,4 17,1 18 10 - - Z 1007,9 15 0 0,0
12.08.2018 12:00:00 17,3 16,8 22 12 - - Z 1008,4 16 0 0,0
12.08.2018 11:00:00 16,5 15,9 24 13 - - Z 1008,7 6 0 0,0
12.08.2018 10:00:00 16,7 16,1 26 14 - - Z 1008,9 11 0 2,0
12.08.2018 09:00:00 17,2 16,6 22 12 - - Z 1009,1 5 0 0,8
12.08.2018 08:00:00 17,0 16,4 22 12 - - Z 1009,5 7 0 1,0
12.08.2018 07:00:00 16,7 16,2 16 9 - - Z 1009,9 8 0 1,8
12.08.2018 06:00:00 16,3 15,7 16 9 - - Z 1010,4 6 0 3,4
12.08.2018 05:00:00 16,3 15,8 16 9 - - Z 1010,9 2,5 0 3,2
12.08.2018 04:00:00 16,3 15,5 22 12 - - Z 1012,0 15 0 0,4
12.08.2018 03:00:00 16,2 15,6 18 10 - - Z 1012,9 10 0 0,0
12.08.2018 02:00:00 16,4 15,7 18 10 - - Z 1013,5 10 0 2,2
12.08.2018 01:00:00 16,7 15,9 21 11 - - Z 1014,2 3,1 - 3,4
12.08.2018 00:00:00 17,3 15,9 18 10 - - Z 1014,9 5 0 0,0
11.08.2018 23:00:00 17,3 15,9 15 8 - - Z 1015,6 20 0 0,2
11.08.2018 22:00:00 17,2 15,9 16 9 - - Z 1016,4 19 0 1,6
11.08.2018 21:00:00 17,5 15,2 18 10 - - Z 1016,7 24 0 0,0
11.08.2018 20:00:00 17,1 14,7 18 10 - - Z 1017,1 28 0 0,0
11.08.2018 19:00:00 18,1 15,0 21 11 - - Z 1017,8 26 0 0,0
11.08.2018 18:00:00 18,1 15,1 18 10 - - Z 1018,4 23 0 0,0
11.08.2018 17:00:00 17,7 15,6 18 10 - - ZZW 1018,8 19 0 0,0
11.08.2018 16:00:00 17,2 16,2 24 13 - - Z 1019,3 17 0 0,0
11.08.2018 15:00:00 16,7 16,1 22 12 - - Z 1020,0 8 0 0,6
11.08.2018 14:00:00 16,8 15,8 18 10 - - Z 1020,4 4,9 0 0,8
11.08.2018 13:00:00 17,1 15,7 18 10 - - Z 1020,9 21 0 0,2
11.08.2018 12:00:00 16,7 15,3 16 9 - - Z 1021,3 30 0 0,0
11.08.2018 11:00:00 15,5 14,9 15 8 - - OZO 1021,8 3,0 0 0,0
11.08.2018 10:00:00 14,8 14,5 5 3 - - ZZO 1022,1 26 0 0,0
11.08.2018 09:00:00 11,9 11,1 2 1 - - NW 1022,7 17 0 0,0
11.08.2018 08:00:00 9,9 9,5 2 1 - - NO 1022,8 23 0 0,0
11.08.2018 07:00:00 8,3 8,3 2 1 - - NO 1022,9 20 0 0,0
11.08.2018 06:00:00 6,1 6,1 2 1 - - NNW 1022,8 15 0 0,0
11.08.2018 05:00:00 5,4 5,4 4 2 - - ONO 1023,0 11 0 0,0
11.08.2018 04:00:00 4,8 4,3 2 1 - - NO 1023,0 8 0 0,0
11.08.2018 03:00:00 6,1 5,9 4 2 - - NO 1023,1 13 0 0,0
11.08.2018 02:00:00 6,1 5,4 2 1 - - NO 1023,4 14 0 0,0
11.08.2018 01:00:00 8,6 8,0 4 2 - - ONO 1023,1 22 - 0,0
11.08.2018 00:00:00 8,9 7,6 4 2 - - ZO 1023,0 24 0 0,0
10.08.2018 23:00:00 10,6 7,6 4 2 - - Z 1022,7 26 0 0,0
10.08.2018 22:00:00 13,4 8,5 5 3 - - WNW 1022,1 29 0 0,0
10.08.2018 21:00:00 14,3 8,1 8 4 - - WNW 1021,4 35 6 0,0
10.08.2018 20:00:00 17,2 8,9 13 7 - - WNW 1020,6 40 30 0,0
10.08.2018 19:00:00 18,0 9,3 16 9 - - WNW 1020,1 45 6 0,0
10.08.2018 18:00:00 18,7 9,4 24 13 - - WNW 1019,7 45 12 0,0
10.08.2018 17:00:00 18,7 9,0 21 11 - - WNW 1019,1 45 12 0,0
10.08.2018 16:00:00 18,8 10,5 21 11 - - WNW 1018,5 40 12 0,0
10.08.2018 15:00:00 19,2 12,3 22 12 - - WNW 1018,2 35 18 0,0
10.08.2018 14:00:00 19,0 12,6 22 12 - - W 1017,6 50 12 0,0
10.08.2018 13:00:00 16,7 12,3 22 12 48 26 WNW 1017,6 35 24 2,0
10.08.2018 12:00:00 16,5 14,3 18 10 - - WNW 1017,2 35 6 0,6
10.08.2018 11:00:00 17,6 12,5 28 15 - - W 1016,7 40 0 0,2
10.08.2018 10:00:00 16,1 13,1 18 10 - - ZZW 1016,8 35 6 0,0
10.08.2018 09:00:00 15,2 12,5 21 11 - - ZZW 1017,0 30 0 0,0
10.08.2018 08:00:00 14,3 12,2 9 5 - - Z 1017,5 27 0 0,2
10.08.2018 07:00:00 13,5 10,9 8 4 - - Z 1017,8 28 0 0,0
10.08.2018 06:00:00 12,4 9,9 8 4 - - ZZW 1018,0 26 0 0,0
10.08.2018 05:00:00 11,7 9,5 13 7 - - ZZW 1018,0 23 0 0,0
10.08.2018 04:00:00 12,3 9,5 11 6 - - ZZW 1018,2 25 0 0,0
10.08.2018 03:00:00 12,3 9,0 13 7 - - ZZW 1018,2 27 0 0,0
10.08.2018 02:00:00 11,7 8,6 9 5 - - ZW 1018,4 27 0 0,0
10.08.2018 01:00:00 11,7 8,9 8 4 - - Z 1018,4 16 - 0,0
10.08.2018 00:00:00 11,6 8,5 9 5 - - ZZW 1018,3 26 0 0,0
09.08.2018 23:00:00 12,3 8,6 9 5 - - ZW 1018,0 27 0 0,0
09.08.2018 22:00:00 13,7 7,9 11 6 - - W 1017,5 30 0 0,0
09.08.2018 21:00:00 15,0 9,6 9 5 - - W 1017,2 30 12 0,0
09.08.2018 20:00:00 17,5 9,0 16 9 - - WNW 1016,4 35 36 0,0
09.08.2018 19:00:00 17,8 7,8 21 11 - - W 1015,8 40 6 0,0
09.08.2018 18:00:00 19,1 6,6 21 11 - - W 1015,2 40 42 0,0
09.08.2018 17:00:00 21,0 6,6 21 11 - - WNW 1014,9 50 36 0,0
09.08.2018 16:00:00 19,3 7,9 15 8 - - NW 1014,9 15 30 0,0
09.08.2018 15:00:00 20,4 6,8 16 9 - - WNW 1014,9 45 48 0,0
09.08.2018 14:00:00 19,2 9,5 9 5 - - WNW 1015,0 40 30 0,0
09.08.2018 13:00:00 16,6 12,4 9 5 - - ONO 1014,7 40 18 2,8
09.08.2018 12:00:00 18,0 10,4 9 5 - - WNW 1014,4 23 30 0,0
09.08.2018 11:00:00 16,9 11,4 5 3 - - W 1014,3 30 6 0,0
09.08.2018 10:00:00 15,5 12,6 5 3 - - WNW 1014,2 30 30 0,2
09.08.2018 09:00:00 13,2 11,9 8 4 - - NW 1014,1 1,0 0 0,0
09.08.2018 08:00:00 12,4 11,4 5 3 - - NNW 1014,1 0,6 0 0,0
09.08.2018 07:00:00 11,9 11,4 4 2 - - NW 1013,8 0,5 0 0,0
09.08.2018 06:00:00 12,0 11,2 4 2 - - N 1013,8 15 0 0,0
09.08.2018 05:00:00 12,2 11,6 8 4 - - NW 1014,0 0,7 0 0,0
09.08.2018 04:00:00 12,8 12,1 5 3 - - NNW 1013,7 2,0 0 0,0
09.08.2018 03:00:00 13,0 12,0 5 3 - - NW 1013,9 0,7 0 0,0
09.08.2018 02:00:00 13,4 12,7 4 2 - - NW 1014,3 0,4 0 0,0
09.08.2018 01:00:00 13,7 12,9 2 1 - - NNW 1014,3 1,2 - 0,0
09.08.2018 00:00:00 13,5 12,9 2 1 - - NNO 1014,2 16 0 0,0

tt = temperatuur
td = dauwpunt
ff = windsnelheid
fx = windstoten
dd = windrichting
ppp = luchtdruk
vv = zicht
sd = Zonneschijnduur
rr = neerslag

Weerstations in de omgeving